Location: Gu�tanj
(46.5431°N, 14.9692°E)
Time: 21:36:08
(UTC+00:00)

Cosmos 2218 Rocket - Pass Details

Date: 03 March 2021
Orbit: 955 x 1007 km, 82.9° (Epoch: 21 April)

Event Time Altitude Azimuth Distance (km) Brightness Sun altitude
Rises 18:47:23 0° 183° (S) 3,719 6.9 -21.0°
Reaches altitude 10° 18:49:54 10° 183° (S) 2,775 6.3 -21.4°
Maximum altitude 18:56:17 82° 97° (E) 1,022 3.9 -22.5°
Drops below altitude 10° 19:02:43 10° 10° (N) 2,788 6.4 -23.6°
Sets 19:05:15 0° 10° (N) 3,737 7.1 -24.0°
